358  
ASUS43 KOAX 270910  
RWRNE  
 
WEATHER ROUNDUP FOR NEBRASKA  
NATIONAL WEATHER SERVICE OMAHA NE  
400 AM CDT SAT MAY 27 2017  
 
NOTES: SATELLITE DATA IS BEING USED TO AUGMENT CLOUD COVER ABOVE  
12000 FEET.  
"FAIR" INDICATES FEW OR NO CLOUDS BELOW 12,000 FEET WITH NO  
SIGNIFICANT WEATHER AND/OR S TO VISIBILITY
.  
 
* THESE STATIONS DO NOT REPORT WEATHER SUCH AS RAIN...SNOW OR FOG.  
 
NEZ001>004-019>022-054>056-271000-  
NEBRASKA PANHANDLE  
 
CITY SKY/WX TMP DP RH WIND PRES REMARKS
 
SCOTTSBLUFF CLOUDY 49 46 90 W7 30.01S  
ALLIANCE CLOUDY 49 49 100 NW6 29.99R  
CHADRON LGT RAIN 51 47 86 CALM 30.00R  
GORDON CLOUDY 50 47 91 NW6 29.99R  
KIMBALL CLOUDY 48 47 98 NW8 30.02S  
SIDNEY CLOUDY 51 49 92 N7 29.99R  

 
 
NEZ057>060-069>072-079>082-271000-  
SOUTHWEST NEBRASKA  
 
CITY SKY/WX TMP DP RH WIND PRES REMARKS
 
NORTH PLATTE CLOUDY 54 52 93 NE15 29.89F  
IMPERIAL CLOUDY 55 51 86 E6 29.88S  
LEXINGTON CLOUDY 57 55 92 E8 29.89S  
MCCOOK CLOUDY 58 55 90 NE7 29.87R  
OGALLALA CLOUDY 53 51 92 NE6 29.93R  

 
 
NEZ005>010-023>029-035>040-094-271000-  
NORTH CENTRAL NEBRASKA  
 
CITY SKY/WX TMP DP RH WIND PRES REMARKS
 
VALENTINE CLOUDY 54 48 80 SE6 29.91F  
AINSWORTH CLOUDY 54 50 86 CALM 29.94F  
BROKEN BOW CLOUDY 54 52 93 N12 29.93F  
O'NEILL LGT RAIN 55 52 88 NW3 29.97S  
ORD LGT RAIN 55 51 86 N8 29.92R  
THEDFORD CLOUDY 53 52 97 SE9 29.92F  

 
 
NEZ041-046>049-061>064-073>077-083>087-271000-  
SOUTH CENTRAL NEBRASKA  
 
CITY SKY/WX TMP DP RH WIND PRES REMARKS
 
GRAND ISLAND CLOUDY 60 48 64 E3 29.90S  
AURORA CLOUDY 60 47 62 E7 29.89S  
HASTINGS CLOUDY 60 47 61 NE6 29.90F  
HEBRON CLOUDY 62 53 70 NE7 29.86R  
HOLDREGE RAIN 59 56 91 SE8 29.92F  
KEARNEY * CLOUDY 59 50 72 CALM 29.94S  
YORK CLOUDY 59 46 63 E7 29.89S  

 
 
NEZ011>018-030>034-042>045-271000-  
NORTHEAST NEBRASKA  
 
CITY SKY/WX TMP DP RH WIND PRES REMARKS
 
NORFOLK CLOUDY 56 48 74 CALM 29.88F  
ALBION CLOUDY 60 46 59 CALM 29.89F  
BLAIR CLOUDY 61 47 60 N9 29.88F  
FREMONT CLOUDY 57 47 68 CALM 29.89F  
TEKAMAH CLOUDY 54 48 80 NW7 29.89F  
WAYNE CLOUDY 55 50 85 CALM 29.89F  

 
 
NEZ050>053-065>068-078-088>093-271000-  
SOUTHEAST NEBRASKA  
 
CITY SKY/WX TMP DP RH WIND PRES REMARKS
 
LINCOLN CLOUDY 59 48 67 N6 29.87F  
OMAHA EPPLEY CLOUDY 58 49 72 N7 29.88F  
BEATRICE CLOUDY 64 51 62 NE9 29.84F  
FALLS CITY CLOUDY 66 51 58 NE5 29.83F  
NEBRASKA CITY CLOUDY 64 46 51 NE8 29.87S  
PLATTSMOUTH CLOUDY 64 49 59 N5 29.88F  

 
 
NEZ044-045-051>053-067-271000-  
OMAHA AREA  
 
CITY SKY/WX TMP DP RH WIND PRES REMARKS
 
OMAHA EPPLEY CLOUDY 58 49 72 N7 29.88F  
BLAIR CLOUDY 61 47 60 N9 29.88F  
FREMONT CLOUDY 57 47 68 CALM 29.89F  
MILLARD CLOUDY 64 49 57 CALM 29.88F  
OFFUTT AFB CLOUDY 61 49 65 N6 29.87S  
PLATTSMOUTH CLOUDY 64 49 59 N5 29.88F  
WAHOO FAIR 56 47 73 N7 29.88F  

 
 
 
CLICK HERE TO GO TO PREVIOUS BULLETINS.

The Nexlab NE Page Main Text Page